星链-5789 (STARLINK-5789 )

导读

STARLINK-5789是美国SpaceX星链(Starlink)项目的卫星,于2023年3月24日发射入轨,属于星链低轨互联网卫星星座的组网卫星,旨在为全球提供高速低延迟互联网接入服务,目前已在轨运行近三年,该卫星延续星链设计,工作在近地轨道,承担相关通信服务任务。

Basic Information
目录编号:
56003
目录名称:
STARLINK-5789
国际标识:
2023-042T
轨道中心:
EARTH
卫星名称:
星链-5789
卫星全名:
星链-5789 (STARLINK-5789 )
卫星状态:
在轨 (已飞行1261 天)
发射日期:
2023-03-24 UTC
国别 :
美国 (US)
星等 :
--
Orbit Information
数据来源 国际轨道数据 AOE轨道数据
星历时间 2026-09-05T16:28:47+0800
12小时前
查看轨道信息
2026-08-30T20:00:00+0800
6天前
查看轨道信息
半长轴 6861.138km 6861.182km
偏心率 0.0000837 0.0000609
轨道倾角 43.001° 43.002°
近地点辐角 135.434° 162.404°
升交点赤经 125.215° 158.273°
平近点角 224.658° 10.897°
近地点 482.426km 482.627km
远地点 483.576km 483.463km
周期 94.266分钟 94.267分钟
每日圈数 15.275963 15.275814
Detailed Information
固有亮度:
5
最大亮度:
2.5
卫星平台:
Starlink v1.5
覆盖范围:
全球
运营商:
太空探索技术公司
运营商所在国:
美国
制造商(研发单位):
太空探索技术公司
制造商所在国:
美国
使用方式:
暂无
Satellite Introduction
星链(Starlink)计划是由太空探索技术公司(SpaceX)提出的一个巨型低轨卫星互联网星座项目,计划在2019年至2024年间在太空搭建由约1.2万颗卫星组成的“星链”网络,其中1584颗将部署在地球上空550千米处的近地轨道,并从2020年开始工作。该卫星仍在工作。
2D Orbit Map
3D Orbit Map
Orbit Altitude Analysis Chart
Orbit Inclination Analysis Chart
Orbit Comprehensive Analysis Chart
View Comprehensive Chart
Conjunction Data List
Event ID Objects TCA Miss Dist (km) Collision Risk Probability Collision Risk Index (CRI) Action
CDM_260905-180705-600306-733121
2026-09-05T
18:07:13+0000
0.245 km
中距离
5.065047E-4 高风险 0.89
CDM_260908-053805-600306-651821
2026-09-08T
05:38:21+0000
0.567 km
远距离
1.177579E-4 高风险 0.76
CDM_260907-170305-600306-220021
2026-09-07T
17:03:52+0000
0.719 km
远距离
6.08658E-5 中风险 0.71
CDM_260906-103505-600306-733121
2026-09-06T
10:35:51+0000
0.864 km
远距离
2.800473E-5 中风险 0.64
CDM_260908-120405-600306-657521
2026-09-08T
12:04:26+0000
1.059 km
极远距离
1.203256E-5 中风险 0.57
CDM_260906-090105-600306-733121
2026-09-06T
09:01:41+0000
1.443 km
极远距离
4.865634E-6 低风险 0.49
CDM_260908-040405-600306-651821
2026-09-08T
04:04:12+0000
1.678 km
极远距离
3.582468E-6 低风险 0.46
CDM_260905-194105-600306-733121
2026-09-05T
19:41:23+0000
1.829 km
极远距离
2.384997E-6 低风险 0.43
CDM_260907-183805-600306-220021
2026-09-07T
18:38:01+0000
2.018 km
极远距离
2.190879E-6 低风险 0.42
CDM_260905-163305-600306-733121
2026-09-05T
16:33:04+0000
2.088 km
极远距离
1.709459E-6 低风险 0.4